period_start,C,m1,H,J0,J1,J2,J3,J4,J5,JA,JB,JC,JD,JJ,JK,JN,#
2017-04-02 00:01:28,0.07,0.20,0.00,24.92,27.35,30.38,14.09,48.58,1000.40,2031.15,3451.94,3034.43,3476.52,599.88,582.60,2.39,0000 0000 0000 0000 000000
2017-04-02 00:06:29,0.07,0.21,0.00,24.95,27.35,30.39,14.09,48.72,1000.41,2031.15,3450.13,3033.24,3475.17,599.84,582.49,2.44,0000 0000 0000 0000 000000
2017-04-02 00:11:30,0.07,0.21,0.00,25.14,27.35,30.41,14.08,48.67,1000.50,2031.13,3448.49,3032.24,3473.90,599.71,582.02,2.49,0000 0000 0000 0000 000000
2017-04-02 00:16:32,0.06,0.21,0.00,25.05,27.35,30.41,14.09,48.73,1000.49,2031.11,3446.84,3031.13,3472.61,600.03,582.58,2.54,0000 0000 0000 0000 000000
2017-04-02 00:21:33,0.07,0.22,0.00,24.90,27.36,30.39,14.16,48.71,1000.48,2031.05,3445.08,3030.00,3471.34,600.19,583.04,2.59,0000 0000 0000 0000 000000
2017-04-02 00:26:34,0.07,0.22,0.00,25.05,27.37,30.40,14.14,48.72,1000.47,2031.10,3443.53,3028.96,3470.04,600.27,582.70,2.64,0000 0000 0000 0000 000000
2017-04-02 00:31:35,0.08,0.23,0.00,25.14,27.37,30.41,14.09,48.73,1000.45,2031.14,3441.79,3027.93,3468.78,599.75,582.19,2.69,0000 0000 0000 0000 000000
2017-04-02 00:36:37,0.07,0.23,0.00,24.98,27.37,30.41,14.17,48.77,1000.43,2031.10,3440.20,3026.82,3467.53,600.37,583.00,2.74,0000 0000 0000 0000 000000
2017-04-02 00:41:38,0.07,0.23,0.00,24.89,27.37,30.39,14.16,48.83,1000.46,2031.05,3438.35,3025.69,3466.19,600.25,583.10,2.79,0000 0000 0000 0000 000000
2017-04-02 00:46:39,0.07,0.24,0.00,25.07,27.37,30.40,14.11,48.83,1000.49,2031.04,3436.73,3024.62,3464.86,600.10,582.50,2.84,0000 0000 0000 0000 000000
2017-04-02 00:51:41,0.06,0.24,0.00,25.17,27.37,30.42,14.14,48.80,1000.50,2031.05,3435.20,3023.68,3463.69,600.32,582.61,2.89,0000 0000 0000 0000 000000
2017-04-02 00:56:42,0.07,0.24,0.00,25.04,27.39,30.42,14.11,48.66,1000.50,2031.02,3433.52,3022.56,3462.40,600.12,582.72,2.94,0000 0000 0000 0000 000000
2017-04-02 01:01:44,0.07,0.25,0.00,24.77,27.38,30.37,14.14,48.85,1000.50,2031.02,3431.81,3021.48,3461.12,599.91,583.09,2.99,0000 0000 0000 0000 000000
2017-04-02 01:06:45,0.06,0.25,0.00,24.89,27.38,30.38,14.14,48.92,1000.50,2031.00,3430.37,3020.47,3459.92,599.93,582.71,3.04,0000 0000 0000 0000 000000
2017-04-02 01:11:46,0.06,0.25,0.00,25.14,27.39,30.41,14.11,48.73,1000.51,2031.00,3428.82,3019.57,3458.76,600.11,582.47,3.09,0000 0000 0000 0000 000000
2017-04-02 01:16:47,0.07,0.26,0.00,25.17,27.40,30.43,14.06,48.61,1000.50,2031.00,3427.19,3018.48,3457.56,599.53,581.86,3.14,0000 0000 0000 0000 000000
2017-04-02 01:21:49,0.07,0.26,0.00,24.96,27.40,30.40,14.11,48.82,1000.51,2031.00,3425.54,3017.36,3456.32,599.78,582.58,3.19,0000 0000 0000 0000 000000
2017-04-02 01:26:50,0.06,0.26,0.00,24.97,27.40,30.39,14.11,48.77,1000.52,2031.00,3424.00,3016.40,3455.18,599.94,582.59,3.24,0000 0000 0000 0000 000000
2017-04-02 01:31:51,0.06,0.27,0.00,25.19,27.41,30.42,14.09,48.70,1000.54,2031.00,3422.51,3015.48,3454.07,599.84,582.16,3.29,0000 0000 0000 0000 000000
2017-04-02 01:36:53,0.07,0.27,0.00,25.08,27.42,30.43,14.07,48.67,1000.53,2031.00,3420.82,3014.41,3452.78,599.88,582.41,3.34,0000 0000 0000 0000 000000
2017-04-02 01:41:54,0.06,0.28,0.00,24.81,27.42,30.38,14.16,48.67,1000.51,2031.00,3419.35,3013.43,3451.68,599.82,582.83,3.39,0000 0000 0000 0000 000000
2017-04-02 01:46:55,0.07,0.28,0.00,24.89,27.42,30.37,14.14,48.73,1000.53,2031.00,3417.71,3012.44,3450.50,600.23,583.14,3.44,0000 0000 0000 0000 000000
2017-04-02 01:51:56,0.06,0.28,0.00,25.17,27.42,30.42,14.10,48.74,1000.51,2030.99,3416.33,3011.50,3449.39,599.65,581.99,3.49,0000 0000 0000 0000 000000
2017-04-02 01:56:57,0.06,0.28,0.00,25.22,27.42,30.44,14.12,48.81,1000.50,2030.99,3414.84,3010.56,3448.33,600.00,582.21,3.55,0000 0000 0000 0000 000000
2017-04-02 02:01:59,0.07,0.29,0.00,24.95,27.42,30.42,14.13,48.82,1000.51,2030.98,3413.19,3009.54,3447.05,599.85,582.48,3.60,0000 0000 0000 0000 000000
2017-04-02 02:07:00,0.06,0.29,0.00,24.79,27.42,30.39,14.15,48.76,1000.50,2030.99,3411.72,3008.63,3445.91,599.91,582.98,3.65,0000 0000 0000 0000 000000
2017-04-02 02:12:01,0.05,0.29,0.00,25.08,27.42,30.41,14.15,48.84,1000.50,2030.99,3410.38,3007.85,3444.88,599.89,582.40,3.70,0000 0000 0000 0000 000000
2017-04-02 02:17:02,0.06,0.30,0.00,25.26,27.42,30.45,14.15,48.81,1000.50,2030.99,3408.88,3007.00,3443.76,600.11,582.24,3.75,0000 0000 0000 0000 000000
2017-04-02 02:22:03,0.06,0.30,0.00,25.04,27.43,30.43,14.16,48.97,1000.50,2030.99,3407.51,3006.08,3442.65,600.20,582.70,3.80,0000 0000 0000 0000 000000
2017-04-02 02:27:04,0.06,0.30,0.00,24.92,27.43,30.41,14.14,48.88,1000.50,2030.99,3406.04,3005.17,3441.65,600.07,582.79,3.85,0000 0000 0000 0000 000000
2017-04-02 02:32:06,0.06,0.31,0.00,25.15,27.44,30.44,14.16,48.85,1000.50,2030.99,3404.64,3004.19,3440.54,600.28,582.61,3.90,0000 0000 0000 0000 000000
2017-04-02 02:37:07,0.05,0.31,0.00,25.20,27.45,30.45,14.14,48.78,1000.51,2030.99,3403.26,3003.34,3439.52,600.08,582.35,3.95,0000 0000 0000 0000 000000
2017-04-02 02:42:08,0.07,0.31,0.00,24.92,27.45,30.42,14.13,48.83,1000.52,2030.98,3401.75,3002.38,3438.38,599.72,582.52,4.00,0000 0000 0000 0000 000000
2017-04-02 02:47:10,0.05,0.32,0.00,24.84,27.45,30.38,14.16,48.87,1000.52,2030.98,3400.41,3001.55,3437.36,600.09,583.01,4.05,0000 0000 0000 0000 000000
2017-04-02 02:52:11,0.05,0.32,0.00,25.12,27.45,30.42,14.11,48.80,1000.53,2030.99,3399.01,3000.72,3436.36,599.86,582.31,4.10,0000 0000 0000 0000 000000
2017-04-02 02:57:12,0.05,0.32,0.00,25.30,27.45,30.46,14.14,48.74,1000.51,2030.99,3397.70,2999.92,3435.38,599.66,581.78,4.15,0000 0000 0000 0000 000000
2017-04-02 03:02:13,0.05,0.33,0.00,25.03,27.45,30.43,14.13,48.66,1000.57,2030.99,3396.42,2999.04,3434.36,600.29,582.77,4.20,0000 0000 0000 0000 000000
2017-04-02 03:07:15,0.06,0.33,0.00,24.83,27.45,30.37,14.11,48.75,1000.68,2030.99,3394.98,2998.13,3433.34,600.09,583.15,4.25,0000 0000 0000 0000 000000
2017-04-02 03:12:16,0.06,0.33,0.00,25.05,27.45,30.41,14.08,48.71,1000.65,2030.99,3393.65,2997.24,3432.29,599.59,582.25,4.30,0000 0000 0000 0000 000000
2017-04-02 03:17:17,0.05,0.33,0.00,25.30,27.46,30.44,14.07,48.75,1000.86,2030.96,3392.41,2996.39,3431.30,599.72,582.05,4.35,0000 0000 0000 0000 000000
2017-04-02 03:22:18,0.05,0.34,0.00,25.15,27.47,30.44,14.14,48.70,1000.99,2030.96,3391.13,2995.54,3430.29,600.23,582.87,4.40,0000 0000 0000 0000 000000
2017-04-02 03:27:19,0.06,0.34,0.00,24.85,27.47,30.40,14.11,48.66,1000.99,2030.97,3389.76,2994.65,3429.24,600.02,583.18,4.45,0000 0000 0000 0000 000000
2017-04-02 03:32:20,0.04,0.34,0.00,24.86,27.47,30.37,14.11,48.63,1000.99,2030.96,3388.54,2993.88,3428.30,599.89,583.12,4.50,0000 0000 0000 0000 000000
2017-04-02 03:37:22,0.05,0.35,0.00,25.19,27.47,30.44,14.06,48.64,1000.99,2030.97,3387.39,2993.07,3427.40,599.55,582.13,4.55,0000 0000 0000 0000 000000
2017-04-02 03:42:23,0.06,0.35,0.00,25.28,27.47,30.45,14.14,48.67,1000.99,2030.98,3386.10,2992.27,3426.43,599.85,582.21,4.60,0000 0000 0000 0000 000000
2017-04-02 03:47:24,0.06,0.35,0.00,24.98,27.47,30.40,14.09,48.69,1000.99,2030.98,3384.71,2991.46,3425.40,599.71,582.82,4.65,0000 0000 0000 0000 000000
2017-04-02 03:52:25,0.05,0.36,0.00,24.89,27.48,30.37,14.16,48.73,1000.99,2030.96,3383.41,2990.57,3424.40,599.75,582.69,4.70,0000 0000 0000 0000 000000
2017-04-02 03:57:27,0.04,0.36,0.00,25.05,27.48,30.40,14.18,48.80,1000.99,2030.95,3382.15,2989.84,3423.47,600.16,583.00,4.75,0000 0000 0000 0000 000000
2017-04-02 04:02:28,0.04,0.36,0.00,25.31,27.50,30.44,14.11,48.68,1000.99,2030.91,3380.95,2988.99,3422.46,600.06,582.29,4.80,0000 0000 0000 0000 000000
2017-04-02 04:07:29,0.05,0.36,0.00,25.13,27.50,30.43,14.14,48.65,1000.99,2030.82,3379.67,2988.12,3421.49,600.00,582.64,4.85,0000 0000 0000 0000 000000
2017-04-02 04:12:31,0.05,0.37,0.00,24.91,27.50,30.39,14.16,48.62,1001.00,2030.78,3378.30,2987.30,3420.52,600.45,583.42,4.90,0000 0000 0000 0000 000000
2017-04-02 04:17:32,0.04,0.37,0.00,24.90,27.50,30.39,14.08,48.68,1000.99,2030.57,3376.93,2986.47,3419.60,599.35,582.51,4.95,0000 0000 0000 0000 000000
2017-04-02 04:22:33,0.05,0.37,0.00,24.96,27.50,30.38,14.12,48.63,1000.99,2030.62,3375.78,2985.79,3418.70,599.94,583.00,5.00,0000 0000 0000 0000 000000
2017-04-02 04:27:34,0.05,0.37,0.00,25.19,27.50,30.42,14.13,48.58,1000.99,2030.67,3374.63,2984.99,3417.75,599.90,582.46,5.05,0000 0000 0000 0000 000000
2017-04-02 04:32:36,0.04,0.38,0.00,25.12,27.50,30.44,14.15,48.52,1001.00,2030.61,3373.41,2984.13,3416.84,600.47,583.13,5.10,0000 0000 0000 0000 000000
2017-04-02 04:37:37,0.08,0.38,0.00,24.88,27.50,30.39,14.11,48.48,1001.00,2030.78,3372.14,2983.50,3416.01,599.68,582.86,5.15,0000 0000 0000 0000 000000
2017-04-02 04:42:38,0.05,0.38,0.00,24.88,27.50,30.38,14.13,48.59,1001.02,2030.84,3370.91,2982.76,3415.13,599.87,583.07,5.20,0000 0000 0000 0000 000000
2017-04-02 04:47:39,0.05,0.39,0.00,24.90,27.50,30.40,14.20,48.61,1001.10,2030.91,3369.72,2981.98,3414.16,600.29,583.52,5.25,0000 0000 0000 0000 000000
2017-04-02 04:52:41,0.04,0.39,0.00,24.90,27.50,30.38,14.18,48.52,1001.33,2030.85,3368.50,2981.13,3413.25,600.09,583.46,5.30,0000 0000 0000 0000 000000
2017-04-02 04:57:42,0.06,0.39,0.00,25.02,27.50,30.39,14.17,48.45,1001.44,2030.84,3367.46,2980.44,3412.41,600.06,583.22,5.35,0000 0000 0000 0000 000000
2017-04-02 05:02:43,0.03,0.39,0.00,25.15,27.50,30.41,14.08,48.32,1001.48,2030.88,3366.38,2979.83,3411.63,599.65,582.66,5.40,0000 0000 0000 0000 000000
2017-04-02 05:07:45,0.04,0.40,0.00,25.00,27.50,30.40,14.12,48.33,1001.48,2030.74,3365.20,2979.03,3410.72,600.10,583.39,5.45,0000 0000 0000 0000 000000
2017-04-02 05:12:46,0.05,0.40,0.00,24.87,27.50,30.36,14.15,48.40,1001.48,2030.69,3363.92,2978.15,3409.84,600.01,583.55,5.50,0000 0000 0000 0000 000000
2017-04-02 05:17:47,0.05,0.40,0.00,24.93,27.50,30.40,14.10,48.42,1001.48,2030.73,3362.86,2977.57,3409.02,599.95,583.30,5.55,0000 0000 0000 0000 000000
2017-04-02 05:22:49,0.05,0.40,0.00,24.93,27.50,30.40,14.11,48.55,1001.48,2030.78,3361.78,2976.98,3408.17,599.83,583.20,5.60,0000 0000 0000 0000 000000
2017-04-02 05:27:50,0.05,0.41,0.00,24.92,27.50,30.41,14.07,48.62,1001.48,2030.80,3360.69,2976.17,3407.44,599.75,583.05,5.65,0000 0000 0000 0000 000000
2017-04-02 05:32:51,0.04,0.41,0.00,24.93,27.50,30.40,14.17,48.58,1001.48,2030.69,3359.61,2975.57,3406.61,599.97,583.33,5.70,0000 0000 0000 0000 000000
2017-04-02 05:37:52,0.04,0.41,0.00,24.95,27.50,30.41,14.08,48.44,1001.48,2030.77,3358.52,2974.92,3405.90,599.52,582.90,5.75,0000 0000 0000 0000 000000
2017-04-02 05:42:53,0.05,0.41,0.00,24.95,27.50,30.39,14.18,48.49,1001.48,2030.69,3357.33,2974.08,3405.02,600.21,583.55,5.80,0000 0000 0000 0000 000000
2017-04-02 05:47:55,0.05,0.42,0.00,24.93,27.50,30.38,14.17,48.42,1001.50,2030.79,3356.26,2973.39,3404.16,599.94,583.28,5.85,0000 0000 0000 0000 000000
2017-04-02 05:52:56,0.05,0.42,0.00,24.93,27.50,30.39,14.09,48.38,1001.50,2030.75,3355.05,2972.73,3403.31,599.77,583.16,5.91,0000 0000 0000 0000 000000
2017-04-02 05:57:57,0.04,0.42,0.00,24.95,27.50,30.40,14.10,48.30,1001.50,2030.74,3353.85,2971.98,3402.40,600.00,583.36,5.96,0000 0000 0000 0000 000000
2017-04-02 06:02:59,0.05,0.42,0.00,24.98,27.51,30.38,14.10,48.30,1001.51,2030.74,3352.80,2971.17,3401.63,599.91,583.24,6.01,0000 0000 0000 0000 000000
2017-04-02 06:08:00,0.05,0.42,0.00,24.96,27.52,30.37,14.07,48.38,1001.53,2030.77,3351.73,2970.55,3400.82,599.32,582.82,6.06,0000 0000 0000 0000 000000
2017-04-02 06:13:02,0.02,0.43,0.00,25.00,27.52,30.39,14.13,48.42,1001.56,2030.62,3350.57,2969.81,3399.91,599.86,583.16,6.11,0000 0000 0000 0000 000000
2017-04-02 06:18:03,0.02,0.43,0.00,25.02,27.53,30.40,14.10,48.40,1001.53,2030.30,3349.53,2969.01,3399.01,599.49,582.72,6.16,0000 0000 0000 0000 000000
2017-04-02 06:23:04,0.05,0.43,0.00,25.02,27.55,30.38,14.19,48.47,1001.53,2030.20,3348.29,2968.16,3398.07,600.50,583.61,6.21,0000 0000 0000 0000 000000
2017-04-02 06:28:05,0.05,0.43,0.00,25.00,27.56,30.37,14.15,48.56,1001.51,2030.16,3347.25,2967.51,3397.17,599.83,583.21,6.26,0000 0000 0000 0000 000000
2017-04-02 06:33:06,0.03,0.44,0.00,25.01,27.57,30.38,14.19,48.50,1001.50,2030.04,3346.31,2966.86,3396.40,600.25,583.44,6.31,0000 0000 0000 0000 000000
2017-04-02 06:38:07,0.05,0.44,0.00,25.03,27.58,30.38,14.24,48.59,1001.50,2030.04,3345.28,2966.08,3395.56,600.28,583.40,6.36,0000 0000 0000 0000 000000
2017-04-02 06:43:09,0.05,0.44,0.00,25.05,27.60,30.38,14.21,48.57,1001.48,2030.01,3344.16,2965.28,3394.61,599.90,582.99,6.41,0000 0000 0000 0000 000000
2017-04-02 06:48:10,0.04,0.44,0.00,25.03,27.61,30.38,14.08,48.55,1001.49,2030.00,3343.01,2964.59,3393.78,599.35,582.58,6.46,0000 0000 0000 0000 000000
2017-04-02 06:53:11,0.03,0.45,0.00,25.04,27.62,30.40,14.16,48.64,1001.50,2030.00,3341.92,2963.94,3392.97,599.85,583.01,6.51,0000 0000 0000 0000 000000
2017-04-02 06:58:12,0.06,0.45,0.00,25.07,27.62,30.41,14.12,48.54,1001.53,2030.00,3340.72,2963.10,3392.03,599.62,582.78,6.56,0000 0000 0000 0000 000000
2017-04-02 07:03:13,0.05,0.45,0.00,25.07,27.64,30.42,14.14,48.48,1001.59,2030.00,3339.68,2962.35,3391.09,600.34,583.46,6.61,0000 0000 0000 0000 000000
2017-04-02 07:08:14,0.04,0.45,0.00,25.09,27.65,30.42,14.19,48.58,1001.62,2030.00,3338.56,2961.77,3390.55,600.06,583.19,6.66,0000 0000 0000 0000 000000
2017-04-02 07:13:16,0.04,0.46,0.00,25.08,27.65,30.42,14.16,48.48,1001.77,2029.99,3337.45,2961.02,3389.72,599.93,583.14,6.71,0000 0000 0000 0000 000000
2017-04-02 07:18:17,0.04,0.46,0.00,25.08,27.65,30.42,14.13,48.47,1001.87,2029.99,3336.47,2960.28,3388.94,600.29,583.56,6.76,0000 0000 0000 0000 000000
2017-04-02 07:23:18,0.04,0.46,0.00,25.10,27.65,30.42,14.13,48.51,1001.91,2029.99,3335.37,2959.72,3388.08,599.86,583.12,6.81,0000 0000 0000 0000 000000
2017-04-02 07:28:20,0.04,0.46,0.00,25.10,27.67,30.43,14.15,48.55,1001.94,2029.99,3334.37,2959.01,3387.32,600.07,583.36,6.86,0000 0000 0000 0000 000000
2017-04-02 07:33:21,0.05,0.47,0.00,25.13,27.67,30.43,14.17,48.49,1001.97,2029.99,3333.31,2958.20,3386.41,600.24,583.48,6.91,0000 0000 0000 0000 000000
2017-04-02 07:38:22,0.04,0.47,0.00,25.13,27.67,30.45,14.15,48.50,1001.97,2029.98,3332.24,2957.59,3385.64,600.31,583.67,6.96,0000 0000 0000 0000 000000
2017-04-02 07:43:24,0.03,0.47,0.00,25.14,27.67,30.45,14.16,48.42,1001.97,2029.97,3331.12,2956.96,3384.86,600.41,583.55,7.01,0000 0000 0000 0000 000000
2017-04-02 07:48:25,0.05,0.47,0.00,25.17,27.67,30.44,14.15,48.58,1001.97,2029.98,3330.06,2956.14,3384.02,600.29,583.36,7.06,0000 0000 0000 0000 000000
2017-04-02 07:53:26,0.05,0.47,0.00,25.19,27.67,30.40,14.14,48.51,1001.97,2029.96,3328.90,2955.48,3383.17,600.13,583.24,7.11,0000 0000 0000 0000 000000
2017-04-02 07:58:28,0.04,0.48,0.00,25.22,27.68,30.46,14.11,48.63,1001.97,2029.98,3327.88,2954.88,3382.40,599.86,582.94,7.16,0000 0000 0000 0000 000000
2017-04-02 08:03:29,0.05,0.48,0.00,25.26,27.69,30.45,14.10,48.65,1001.97,2029.97,3326.91,2954.08,3381.59,599.70,582.77,7.21,0000 0000 0000 0000 000000
2017-04-02 08:08:30,0.05,0.48,0.00,25.33,27.70,30.46,14.12,48.64,1001.97,2029.96,3325.82,2953.29,3380.72,599.66,582.51,7.26,0000 0000 0000 0000 000000
2017-04-02 08:13:31,0.04,0.48,0.00,25.39,27.70,30.43,14.11,48.55,1001.97,2029.96,3324.77,2952.73,3379.88,599.81,582.57,7.31,0000 0000 0000 0000 000000
2017-04-02 08:18:33,0.03,0.49,0.00,25.44,27.72,30.44,14.07,48.46,1001.97,2029.91,3323.80,2952.00,3379.03,600.17,582.80,7.36,0000 0000 0000 0000 000000
2017-04-02 08:23:34,0.05,0.49,0.00,25.51,27.72,30.45,14.11,48.58,1001.97,2029.77,3322.66,2951.22,3378.17,600.09,582.54,7.41,0000 0000 0000 0000 000000
2017-04-02 08:28:35,0.02,0.49,0.00,25.58,27.74,30.44,14.10,48.54,1001.97,2029.51,3321.70,2950.55,3377.29,600.02,582.33,7.46,0000 0000 0000 0000 000000
2017-04-02 08:33:36,0.02,0.49,0.00,25.60,27.75,30.44,14.11,48.50,1001.99,2029.14,3320.53,2949.78,3376.39,600.39,582.73,7.51,0000 0000 0000 0000 000000
2017-04-02 08:38:38,0.04,0.49,0.00,25.60,27.75,30.46,14.13,48.51,1002.01,2029.07,3319.44,2949.04,3375.62,600.18,582.55,7.56,0000 0000 0000 0000 000000
2017-04-02 08:43:39,0.05,0.50,0.00,25.58,27.77,30.47,14.10,48.56,1002.26,2029.02,3318.27,2948.25,3374.75,599.94,582.39,7.61,0000 0000 0000 0000 000000
2017-04-02 08:48:41,0.05,0.50,0.00,25.56,27.77,30.50,14.06,48.48,1002.34,2029.03,3317.01,2947.55,3373.83,600.03,582.66,7.66,0000 0000 0000 0000 000000
2017-04-02 08:53:42,0.04,0.50,0.00,25.54,27.78,30.51,14.15,48.43,1002.31,2029.03,3315.90,2946.89,3372.98,600.09,582.80,7.71,0000 0000 0000 0000 000000
2017-04-02 08:58:43,0.05,0.50,0.00,25.52,27.80,30.52,14.14,48.47,1002.35,2029.02,3314.78,2946.06,3372.09,600.40,583.04,7.76,0000 0000 0000 0000 000000
2017-04-02 09:03:44,0.05,0.51,0.00,25.51,27.80,30.57,14.12,48.52,1002.40,2029.01,3313.78,2945.39,3371.28,600.24,583.04,7.81,0000 0000 0000 0000 000000
2017-04-02 09:08:46,0.05,0.51,0.00,25.49,27.80,30.55,14.18,48.39,1002.38,2029.00,3312.64,2944.68,3370.41,600.20,582.97,7.86,0000 0000 0000 0000 000000
2017-04-02 09:13:47,0.04,0.51,0.00,25.50,27.81,30.60,14.10,48.30,1002.35,2029.00,3311.60,2944.01,3369.55,600.14,582.90,7.91,0000 0000 0000 0000 000000
2017-04-02 09:18:48,0.05,0.51,0.00,25.50,27.82,30.63,14.02,48.32,1002.42,2029.00,3310.41,2943.22,3368.75,599.84,582.74,7.96,0000 0000 0000 0000 000000
2017-04-02 09:23:50,0.04,0.52,0.00,25.50,27.82,30.60,14.15,48.39,1002.39,2029.00,3309.43,2942.68,3367.94,600.02,582.80,8.01,0000 0000 0000 0000 000000
2017-04-02 09:28:51,0.03,0.52,0.00,25.51,27.82,30.62,14.03,48.34,1002.39,2029.00,3308.45,2941.99,3367.09,599.33,582.17,8.06,0000 0000 0000 0000 000000
2017-04-02 09:33:53,0.06,0.52,0.00,25.52,27.82,30.64,14.10,48.40,1002.46,2029.00,3307.25,2941.13,3366.17,599.99,582.82,8.11,0000 0000 0000 0000 000000
2017-04-02 09:38:54,0.05,0.52,0.00,25.53,27.83,30.67,14.16,48.44,1002.46,2028.99,3306.15,2940.50,3365.28,600.30,583.14,8.16,0000 0000 0000 0000 000000
2017-04-02 09:43:55,0.03,0.53,0.00,25.55,27.84,30.64,14.09,48.42,1002.46,2028.99,3305.24,2939.99,3364.70,600.22,582.71,8.21,0000 0000 0000 0000 000000
2017-04-02 09:48:56,0.04,0.53,0.00,25.55,27.85,30.64,14.15,48.42,1002.46,2028.99,3304.27,2939.21,3363.95,600.29,582.97,8.26,0000 0000 0000 0000 000000
2017-04-02 09:53:57,0.05,0.53,0.00,25.57,27.85,30.65,14.07,48.41,1002.46,2028.99,3303.21,2938.56,3363.08,599.67,582.41,8.32,0000 0000 0000 0000 000000
2017-04-02 09:58:58,0.04,0.53,0.00,25.57,27.85,30.64,14.10,48.38,1002.46,2028.99,3302.19,2937.99,3362.26,599.98,582.68,8.37,0000 0000 0000 0000 000000
2017-04-02 10:04:00,0.05,0.54,0.00,25.57,27.86,30.69,14.17,48.42,1002.46,2028.99,3301.27,2937.25,3361.67,600.30,582.98,8.42,0000 0000 0000 0000 000000
2017-04-02 10:09:01,0.03,0.54,0.00,25.59,27.87,30.70,14.14,48.43,1002.47,2028.99,3300.28,2936.76,3360.91,599.76,582.41,8.47,0000 0000 0000 0000 000000
2017-04-02 10:14:02,0.04,0.54,0.00,25.59,27.87,30.72,14.07,48.44,1002.48,2028.99,3299.31,2936.03,3360.09,599.81,582.50,8.52,0000 0000 0000 0000 000000
2017-04-02 10:19:03,0.15,0.54,0.00,25.60,27.87,30.70,14.10,48.33,1002.47,2028.96,3297.41,2934.48,3358.24,600.22,582.86,8.57,0000 0000 0000 0000 000000
2017-04-02 10:24:04,0.33,0.56,0.00,25.61,27.88,30.71,14.09,48.47,1002.48,2028.92,3291.27,2929.40,3352.67,600.05,582.57,8.62,0000 0000 0000 0000 000000
2017-04-02 10:29:05,0.29,0.57,0.00,25.62,27.90,30.72,14.15,48.50,1002.48,2028.76,3285.94,2924.98,3347.76,600.08,582.68,8.67,0000 0000 0000 0000 000000
2017-04-02 10:34:06,0.37,0.59,0.00,25.64,27.90,30.74,14.07,48.39,1002.47,2028.37,3278.33,2918.59,3340.68,599.85,582.40,8.72,0000 0000 0000 0000 000000
2017-04-02 10:39:08,0.29,0.61,0.00,25.65,27.90,30.74,14.08,48.41,1002.47,2028.29,3272.47,2913.73,3335.35,599.95,582.54,8.77,0000 0000 0000 0000 000000
2017-04-02 10:44:09,0.19,0.62,0.00,25.65,27.90,30.74,14.05,48.46,1002.47,2028.28,3268.62,2910.72,3332.01,599.83,582.42,8.82,0000 0000 0000 0000 000000
2017-04-02 10:49:11,0.17,0.63,0.00,25.65,27.91,30.75,14.12,48.46,1002.50,2028.23,3264.96,2907.82,3328.79,600.08,582.63,8.87,0000 0000 0000 0000 000000
2017-04-02 10:54:12,0.35,0.64,0.00,25.66,27.92,30.73,14.08,48.49,1002.52,2028.06,3259.39,2903.16,3323.63,599.76,582.28,8.92,0000 0000 0000 0000 000000
2017-04-02 10:59:14,0.34,0.66,0.00,25.67,27.92,30.79,14.15,48.50,1002.51,2028.01,3252.34,2897.82,3317.68,599.94,582.38,8.97,0000 0000 0000 0000 000000
2017-04-02 11:04:15,0.28,0.68,0.00,25.68,27.92,30.81,14.09,48.52,1002.49,2028.01,3246.30,2893.39,3312.74,599.91,582.33,9.02,0000 0000 0000 0000 000000
2017-04-02 11:09:16,0.22,0.69,0.00,25.68,27.92,30.81,14.09,48.43,1002.47,2028.01,3241.69,2889.92,3308.84,599.81,582.25,9.07,0000 0000 0000 0000 000000
2017-04-02 11:14:18,0.23,0.70,0.00,25.68,27.94,30.82,14.15,48.48,1002.47,2028.00,3237.22,2886.78,3305.28,600.14,582.62,9.12,0000 0000 0000 0000 000000
2017-04-02 11:19:19,0.26,0.71,0.00,25.70,27.95,30.82,14.08,48.42,1002.49,2028.00,3231.49,2882.98,3300.97,599.92,582.42,9.17,0000 0000 0000 0000 000000
2017-04-02 11:24:20,0.23,0.72,0.00,25.70,27.95,30.83,14.11,48.42,1002.48,2028.00,3226.48,2879.69,3297.18,600.13,582.63,9.22,0000 0000 0000 0000 000000
2017-04-02 11:29:22,0.45,0.74,0.00,25.70,27.95,30.85,14.18,48.52,1002.60,2028.00,3218.09,2874.44,3291.03,600.22,582.73,9.27,0000 0000 0000 0000 000000
2017-04-02 11:34:23,0.37,0.76,0.00,25.69,27.95,30.87,14.07,48.47,1002.76,2028.00,3209.50,2868.97,3284.88,599.95,582.54,9.32,0000 0000 0000 0000 000000
2017-04-02 11:39:25,0.28,0.78,0.00,25.70,27.95,30.85,14.02,48.33,1002.52,2027.99,3202.98,2864.74,3280.12,599.94,582.31,9.37,0000 0000 0000 0000 000000
2017-04-02 11:44:26,0.35,0.80,0.00,25.70,27.95,30.87,14.13,48.40,1002.54,2027.97,3195.93,2860.05,3274.89,600.13,582.60,9.42,0000 0000 0000 0000 000000
2017-04-02 11:49:27,0.28,0.81,0.00,25.71,27.96,30.89,14.13,48.48,1002.47,2027.99,3189.31,2855.78,3270.03,599.59,582.03,9.47,0000 0000 0000 0000 000000
2017-04-02 11:54:28,0.15,0.82,0.00,25.70,27.96,30.87,14.10,48.43,1002.50,2027.98,3185.77,2853.42,3267.33,599.95,582.35,9.52,0000 0000 0000 0000 000000
2017-04-02 11:59:30,0.16,0.83,0.00,25.69,27.96,30.88,14.12,48.42,1002.55,2027.96,3182.53,2851.23,3264.79,599.94,582.46,9.57,0000 0000 0000 0000 000000
2017-04-02 12:04:31,0.15,0.84,0.00,25.69,27.96,30.91,14.16,48.44,1002.50,2027.95,3179.34,2849.02,3262.40,600.39,582.77,9.62,0000 0000 0000 0000 000000
2017-04-02 12:09:33,0.14,0.85,0.00,25.69,27.96,30.91,14.12,48.48,1002.47,2027.92,3176.47,2846.93,3260.07,599.77,582.23,9.67,0000 0000 0000 0000 000000
2017-04-02 12:14:33,0.15,0.85,0.00,25.68,27.97,30.91,14.11,48.45,1002.47,2027.92,3173.59,2844.90,3257.72,599.87,582.40,9.72,0000 0000 0000 0000 000000
2017-04-02 12:19:35,0.14,0.86,0.00,25.67,27.97,30.92,14.16,48.38,1002.48,2027.91,3170.71,2842.88,3255.39,600.39,582.86,9.77,0000 0000 0000 0000 000000
2017-04-02 12:24:36,0.15,0.87,0.00,25.65,27.97,30.90,14.14,48.39,1002.55,2027.93,3167.89,2840.80,3253.05,600.33,583.00,9.82,0000 0000 0000 0000 000000
2017-04-02 12:29:37,0.15,0.88,0.00,25.64,27.97,30.93,14.07,48.33,1002.57,2027.91,3164.87,2838.68,3250.57,600.10,582.52,9.87,0000 0000 0000 0000 000000
2017-04-02 12:34:38,0.23,0.89,0.00,25.64,27.97,30.93,14.06,48.39,1002.50,2027.92,3160.55,2835.63,3247.16,600.15,582.72,9.92,0000 0000 0000 0000 000000
2017-04-02 12:39:40,0.19,0.90,0.00,25.63,27.97,30.93,14.09,48.46,1002.48,2027.88,3156.16,2832.53,3243.66,600.07,582.68,9.97,0000 0000 0000 0000 000000
2017-04-02 12:44:41,0.13,0.91,0.00,25.62,27.96,30.94,14.11,48.48,1002.47,2027.84,3153.37,2830.63,3241.36,600.02,582.66,10.02,0000 0000 0000 0000 000000
2017-04-02 12:49:42,0.13,0.91,0.00,25.61,27.95,30.94,14.13,48.42,1002.47,2027.81,3150.82,2828.82,3239.28,599.97,582.60,10.07,0000 0000 0000 0000 000000
2017-04-02 12:54:44,0.11,0.92,0.00,25.60,27.95,30.93,14.12,48.52,1002.46,2027.68,3148.21,2826.97,3237.16,600.16,582.78,10.12,0000 0000 0000 0000 000000
2017-04-02 12:59:45,0.14,0.93,0.00,25.59,27.95,30.95,14.11,48.42,1002.46,2027.85,3145.83,2825.30,3235.16,599.95,582.60,10.17,0000 0000 0000 0000 000000